Terminal Aerodrome Forecast
Issued by NWS Charleston, SC

Home | Current Version | Previous Version | Text Only | Print | Product List | Glossary On
Versions: 1 2 3 4 5 6 7 8 9 10 11 12 13 14 15 16 17 18
000
FTUS42 KCHS 281100
TAFSAV
TAF
KSAV 281123Z 2812/2912 VRB03KT P6SM FEW300
     FM281900 14007KT P6SM FEW300
     FM290100 18002KT P6SM SKC=

USA.gov is the U.S. government's official web portal to all federal, state and local government web resources and services.